Location: *
(60.1759°S, 155.0663°W)
Time: 09:48:44
(UTC+00:00)

ATLAS 2AS CENTAUR R/B - Pass Details

Date: 17 September 2019
Orbit: 919 x 1292 km, 63.6° (Epoch: 18 October)

Event Time Altitude Azimuth Distance (km) Brightness Sun altitude
Exits shadow 14:50:41 - 250° (WSW) 2,780 4.4 -12.2°
Reaches altitude 10° 14:50:59 10° 250° (WSW) 2,668 4.3 -12.2°
Maximum altitude 14:57:11 72° 165° (SSE) 1,032 2.7 -11.5°
Drops below altitude 10° 15:03:47 10° 80° (E) 2,833 6.1 -10.7°
Sets 15:06:31 0° 77° (ENE) 3,835 6.9 -10.3°
